User: anonymous   Login
Location: Unspecified
(0.0000°N, 0.0000°E)
Time: 23:56:27
(UTC+00:00)
Language:

STARLINK-2635 - Orbit

View from above orbital plane
View from above orbital plane
View from above satellite
View from above satellite

Ground track
Ground track

The orbit is defined by the following mean orbital elements,

1 48355U          26145.01274875 +.00000000 +00000-0 +98949-4 0 00003
2 48355  53.1607   3.1329 0001297  80.0337 280.0811 15.31713255    00
Epoch (UTC): 25 May 2026 00:18:21
Eccentricity: 0.0001297
inclination: 53.1607°
perigee height: 470 km
apogee height: 472 km
right ascension of ascending node: 3.1329°
argument of perigee: 80.0337°
revolutions per day: 15.31713255
mean anomaly at epoch: 280.0811°

The dashed part of the orbit path shows where the satellite is in the earth's shadow,  

DLR